| time (UTC) | temp F | wind direction | speed MPH | gust MPH | rain 1hr in | rain 24hr in | rain mn in | humidity % | barometer mb |
| 20260502224714 | 49 | 138 | 0.0 | 0.0 | 0.00 | 0.03 | 0.03 | 89 | 1013.3 |
| 20260502224211 | 49 | 133 | 0.0 | 0.0 | 0.00 | 0.03 | 0.03 | 89 | 1013.3 |
| 20260502223708 | 49 | 138 | 0.0 | 0.0 | 0.00 | 0.03 | 0.03 | 90 | 1013.3 |
| 20260502223206 | 49 | 150 | 0.0 | 0.0 | 0.00 | 0.03 | 0.03 | 90 | 1013.2 |
| 20260502222704 | 49 | 146 | 0.0 | 0.0 | 0.00 | 0.03 | 0.03 | 89 | 1013.2 |
| 20260502222200 | 49 | 141 | 0.0 | 0.0 | 0.00 | 0.03 | 0.03 | 89 | 1013.0 |
| 20260502221656 | 49 | 97 | 1.0 | 1.0 | 0.00 | 0.03 | 0.03 | 87 | 1013.1 |
| 20260502221153 | 50 | 239 | 2.0 | 2.0 | 0.00 | 0.03 | 0.03 | 85 | 1013.3 |
| 20260502220649 | 50 | 176 | 1.0 | 1.0 | 0.00 | 0.03 | 0.03 | 84 | 1013.4 |
| 20260502220145 | 50 | 161 | 2.0 | 2.0 | 0.00 | 0.03 | 0.03 | 83 | 1013.4 |
| 20260502215643 | 51 | 143 | 1.0 | 2.0 | 0.00 | 0.03 | 0.03 | 84 | 1013.3 |
| 20260502215139 | 51 | 77 | 1.0 | 1.0 | 0.00 | 0.03 | 0.03 | 84 | 1013.2 |
| 20260502214637 | 51 | 176 | 1.0 | 1.0 | 0.00 | 0.03 | 0.03 | 87 | 1013.2 |
| 20260502214134 | 51 | 139 | 0.0 | 0.0 | 0.00 | 0.03 | 0.03 | 87 | 1013.4 |
| 20260502213631 | 51 | 208 | 2.0 | 2.0 | 0.00 | 0.03 | 0.03 | 86 | 1013.2 |
| 20260502213128 | 51 | 183 | 1.0 | 2.0 | 0.00 | 0.03 | 0.03 | 86 | 1013.1 |
| 20260502212627 | 51 | 124 | 0.0 | 1.0 | 0.00 | 0.03 | 0.03 | 86 | 1013.2 |
| 20260502212125 | 52 | 142 | 1.0 | 1.0 | 0.00 | 0.03 | 0.03 | 86 | 1013.2 |
| 20260502211620 | 52 | 122 | 3.0 | 3.0 | 0.00 | 0.03 | 0.03 | 86 | 1013.2 |
| 20260502211118 | 52 | 172 | 4.0 | 4.0 | 0.00 | 0.03 | 0.03 | 85 | 1013.1 |
| 20260502210615 | 52 | 137 | 0.0 | 0.0 | 0.00 | 0.03 | 0.03 | 85 | 1013.1 |
| 20260502210112 | 52 | 159 | 3.0 | 4.0 | 0.00 | 0.03 | 0.03 | 84 | 1013.3 |
| 20260502205608 | 52 | 142 | 0.0 | 0.0 | 0.00 | 0.03 | 0.03 | 85 | 1013.1 |
| 20260502205106 | 52 | 122 | 1.0 | 2.0 | 0.00 | 0.03 | 0.03 | 84 | 1013.2 |
| 20260502204602 | 53 | 128 | 1.0 | 1.0 | 0.00 | 0.03 | 0.03 | 83 | 1013.2 |
| 20260502204100 | 53 | 134 | 0.0 | 0.0 | 0.00 | 0.03 | 0.03 | 84 | 1013.1 |
| 20260502203556 | 53 | 135 | 2.0 | 3.0 | 0.00 | 0.03 | 0.03 | 84 | 1013.2 |
| 20260502203054 | 53 | 134 | 1.0 | 1.0 | 0.00 | 0.03 | 0.03 | 83 | 1013.2 |
| 20260502202549 | 53 | 202 | 4.0 | 4.0 | 0.00 | 0.03 | 0.03 | 82 | 1013.1 |
| 20260502202048 | 53 | 140 | 1.0 | 1.0 | 0.00 | 0.03 | 0.03 | 82 | 1013.1 |
| 20260502201544 | 53 | 147 | 0.0 | 0.0 | 0.00 | 0.03 | 0.03 | 81 | 1013.1 |
| 20260502201040 | 53 | 135 | 3.0 | 6.0 | 0.00 | 0.03 | 0.03 | 81 | 1013.2 |
| 20260502200536 | 52 | 168 | 3.0 | 4.0 | 0.00 | 0.03 | 0.03 | 80 | 1013.3 |
| 20260502200034 | 52 | 196 | 2.0 | 3.0 | 0.00 | 0.03 | 0.03 | 81 | 1013.3 |
| 20260502195532 | 53 | 130 | 2.0 | 2.0 | 0.00 | 0.03 | 0.03 | 80 | 1013.5 |
| 20260502195027 | 53 | 174 | 4.0 | 4.0 | 0.00 | 0.03 | 0.03 | 79 | 1013.4 |
| 20260502194524 | 53 | 111 | 0.0 | 0.0 | 0.00 | 0.03 | 0.03 | 82 | 1013.6 |
| 20260502194020 | 53 | 123 | 0.0 | 0.0 | 0.00 | 0.03 | 0.03 | 82 | 1013.6 |
| 20260502193518 | 52 | 212 | 4.0 | 6.0 | 0.00 | 0.03 | 0.03 | 82 | 1013.4 |
| 20260502193015 | 52 | 155 | 1.0 | 2.0 | 0.00 | 0.03 | 0.03 | 82 | 1013.7 |
| 20260502192510 | 53 | 130 | 2.0 | 4.0 | 0.00 | 0.03 | 0.03 | 82 | 1013.6 |
| 20260502192008 | 53 | 125 | 1.0 | 1.0 | 0.00 | 0.03 | 0.03 | 83 | 1013.8 |
| 20260502191505 | 52 | 193 | 2.0 | 3.0 | 0.00 | 0.03 | 0.03 | 83 | 1013.8 |
| 20260502191002 | 52 | 132 | 0.0 | 0.0 | 0.00 | 0.03 | 0.03 | 84 | 1014.0 |
| 20260502190459 | 52 | 206 | 4.0 | 6.0 | 0.00 | 0.03 | 0.03 | 81 | 1013.9 |
| 20260502185956 | 52 | 133 | 1.0 | 2.0 | 0.00 | 0.03 | 0.03 | 80 | 1014.2 |
| 20260502185451 | 53 | 142 | 0.0 | 0.0 | 0.00 | 0.03 | 0.03 | 83 | 1014.0 |
| 20260502184948 | 52 | 134 | 1.0 | 1.0 | 0.00 | 0.03 | 0.03 | 84 | 1013.9 |
| 20260502184444 | 51 | 127 | 1.0 | 1.0 | 0.00 | 0.03 | 0.03 | 86 | 1014.1 |
| 20260502183940 | 51 | 132 | 2.0 | 2.0 | 0.00 | 0.03 | 0.03 | 86 | 1014.1 |
| 20260502183437 | 50 | 137 | 0.0 | 0.0 | 0.00 | 0.03 | 0.03 | 90 | 1014.2 |
| 20260502182932 | 50 | 126 | 0.0 | 1.0 | 0.00 | 0.03 | 0.03 | 92 | 1014.3 |
| 20260502182428 | 49 | 149 | 0.0 | 0.0 | 0.00 | 0.03 | 0.03 | 91 | 1014.4 |
| 20260502181924 | 49 | 150 | 0.0 | 1.0 | 0.00 | 0.03 | 0.03 | 91 | 1014.3 |
| 20260502181423 | 49 | 171 | 1.0 | 1.0 | 0.00 | 0.03 | 0.03 | 90 | 1014.4 |
| 20260502180921 | 49 | 145 | 0.0 | 0.0 | 0.00 | 0.03 | 0.03 | 91 | 1014.3 |
| 20260502180418 | 49 | 197 | 3.0 | 3.0 | 0.07 | 0.03 | 0.03 | 90 | 1014.5 |
| 20260502170336 | 51 | 150 | 2.0 | 3.0 | 0.00 | 0.00 | 0.00 | 85 | 1014.6 |
| 20260502164324 | 52 | 130 | 0.0 | 0.0 | 0.00 | 0.00 | 0.00 | 80 | 1014.5 |
| 20260502163820 | 52 | 144 | 0.0 | 0.0 | 0.00 | 0.00 | 0.00 | 80 | 1014.6 |
| 20260502163316 | 52 | 210 | 3.0 | 3.0 | 0.00 | 0.00 | 0.00 | 81 | 1014.5 |
| 20260502162814 | 52 | 133 | 0.0 | 0.0 | 0.00 | 0.00 | 0.00 | 83 | 1014.4 |
| 20260502162310 | 52 | 135 | 0.0 | 0.0 | 0.00 | 0.00 | 0.00 | 82 | 1014.4 |
| 20260502161808 | 52 | 140 | 0.0 | 0.0 | 0.00 | 0.00 | 0.00 | 81 | 1014.4 |
| 20260502161303 | 52 | 140 | 0.0 | 0.0 | 0.00 | 0.00 | 0.00 | 76 | 1014.4 |
| 20260502160801 | 52 | 150 | 2.0 | 2.0 | 0.00 | 0.00 | 0.00 | 79 | 1014.7 |
| 20260502160300 | 53 | 163 | 2.0 | 2.0 | 0.00 | 0.00 | 0.00 | 77 | 1014.7 |
| 20260502152229 | 56 | 127 | 1.0 | 1.0 | 0.00 | 0.00 | 0.00 | 75 | 1015.0 |
| 20260502151727 | 54 | 144 | 0.0 | 1.0 | 0.00 | 0.00 | 0.00 | 76 | 1015.1 |
| 20260502151224 | 54 | 122 | 0.0 | 0.0 | 0.00 | 0.00 | 0.00 | 77 | 1014.8 |
| 20260502150721 | 54 | 60 | 2.0 | 2.0 | 0.00 | 0.00 | 0.00 | 76 | 1014.9 |
| 20260502150218 | 54 | 137 | 0.0 | 0.0 | 0.00 | 0.00 | 0.00 | 79 | 1014.9 |
| 20260502130606 | 50 | 134 | 1.0 | 2.0 | 0.00 | 0.00 | 0.00 | 83 | 1016.0 |
| 20260502130104 | 50 | 183 | 0.0 | 1.0 | 0.00 | 0.00 | 0.00 | 84 | 1015.8 |
| 20260502123549 | 50 | 139 | 0.0 | 0.0 | 0.00 | 0.00 | 0.00 | 81 | 1015.8 |
| 20260502123046 | 50 | 187 | 2.0 | 2.0 | 0.00 | 0.00 | 0.00 | 80 | 1016.0 |
| 20260502122542 | 50 | 220 | 2.0 | 3.0 | 0.00 | 0.00 | 0.00 | 80 | 1015.8 |
| 20260502122040 | 50 | 195 | 2.0 | 2.0 | 0.00 | 0.00 | 0.00 | 80 | 1015.9 |
| 20260502121537 | 51 | 132 | 1.0 | 1.0 | 0.00 | 0.00 | 0.00 | 80 | 1015.7 |
| 20260502121035 | 50 | 146 | 0.0 | 0.0 | 0.00 | 0.00 | 0.00 | 79 | 1015.5 |
| 20260502120531 | 50 | 166 | 2.0 | 2.0 | 0.00 | 0.00 | 0.00 | 79 | 1015.5 |
| 20260502115526 | 51 | 141 | 0.0 | 0.0 | 0.00 | 0.00 | 0.00 | 78 | 1015.4 |
| 20260502115021 | 51 | 197 | 2.0 | 2.0 | 0.00 | 0.00 | 0.00 | 79 | 1015.4 |
| 20260502114518 | 51 | 159 | 3.0 | 3.0 | 0.00 | 0.00 | 0.00 | 78 | 1015.3 |
| 20260502114015 | 51 | 164 | 1.0 | 1.0 | 0.00 | 0.00 | 0.00 | 78 | 1015.3 |
| 20260502113513 | 50 | 133 | 1.0 | 1.0 | 0.00 | 0.00 | 0.00 | 78 | 1014.9 |
| 20260502113011 | 50 | 149 | 1.0 | 1.0 | 0.00 | 0.00 | 0.00 | 79 | 1014.9 |
| 20260502112509 | 49 | 150 | 1.0 | 1.0 | 0.00 | 0.00 | 0.00 | 81 | 1014.9 |
| 20260502112006 | 49 | 178 | 1.0 | 2.0 | 0.00 | 0.00 | 0.00 | 81 | 1015.1 |
| 20260502111503 | 49 | 165 | 1.0 | 2.0 | 0.00 | 0.00 | 0.00 | 81 | 1014.8 |
| 20260502111000 | 48 | 169 | 1.0 | 2.0 | 0.00 | 0.00 | 0.00 | 81 | 1015.1 |
| 20260502110458 | 48 | 174 | 2.0 | 2.0 | 0.00 | 0.00 | 0.00 | 81 | 1014.9 |
| 20260502105955 | 48 | 152 | 1.0 | 1.0 | 0.00 | 0.00 | 0.00 | 81 | 1015.0 |
| 20260502105453 | 48 | 159 | 1.0 | 2.0 | 0.00 | 0.00 | 0.00 | 81 | 1015.1 |
| 20260502104950 | 48 | 146 | 0.0 | 0.0 | 0.00 | 0.00 | 0.00 | 81 | 1014.8 |
| 20260502104447 | 48 | 162 | 1.0 | 1.0 | 0.00 | 0.00 | 0.00 | 81 | 1015.0 |
| 20260502103944 | 48 | 153 | 0.0 | 0.0 | 0.00 | 0.00 | 0.00 | 81 | 1015.1 |
| 20260502103442 | 48 | 140 | 0.0 | 0.0 | 0.00 | 0.00 | 0.00 | 81 | 1014.8 |
| 20260502102938 | 48 | 134 | 0.0 | 0.0 | 0.00 | 0.00 | 0.00 | 81 | 1014.9 |
| 20260502102436 | 48 | 146 | 0.0 | 0.0 | 0.00 | 0.00 | 0.00 | 80 | 1014.9 |
| 20260502101932 | 48 | 140 | 0.0 | 0.0 | 0.00 | 0.00 | 0.00 | 80 | 1014.8 |
| 20260502101431 | 48 | 142 | 0.0 | 0.0 | 0.00 | 0.00 | 0.00 | 80 | 1014.7 |
| 20260502100929 | 48 | 172 | 1.0 | 2.0 | 0.00 | 0.00 | 0.00 | 80 | 1014.7 |
| 20260502100428 | 47 | 139 | 0.0 | 0.0 | 0.00 | 0.00 | 0.00 | 80 | 1014.4 |
| 20260502091402 | 47 | 132 | 0.0 | 0.0 | 0.00 | 0.00 | 0.00 | 81 | 1014.5 |
| 20260502090859 | 47 | 140 | 0.0 | 0.0 | 0.00 | 0.00 | 0.00 | 81 | 1014.2 |
| 20260502090355 | 47 | 128 | 0.0 | 0.0 | 0.00 | 0.00 | 0.00 | 81 | 1014.5 |
| 20260502071250 | 48 | 135 | 0.0 | 0.0 | 0.00 | 0.00 | 0.00 | 74 | 1014.3 |
| 20260502070749 | 48 | 135 | 0.0 | 0.0 | 0.00 | 0.00 | 0.00 | 74 | 1014.4 |
| 20260502070246 | 49 | 136 | 0.0 | 0.0 | 0.00 | 0.00 | 0.00 | 72 | 1014.1 |
| 20260502065745 | 49 | 138 | 0.0 | 0.0 | 0.00 | 0.00 | 0.00 | 71 | 1014.3 |
| 20260502065242 | 50 | 145 | 0.0 | 0.0 | 0.00 | 0.00 | 0.00 | 70 | 1014.4 |
| 20260502064740 | 50 | 136 | 0.0 | 0.0 | 0.00 | 0.00 | 0.00 | 69 | 1014.5 |
| 20260502064238 | 50 | 166 | 1.0 | 1.0 | 0.00 | 0.00 | 0.00 | 69 | 1014.4 |
| 20260502063735 | 50 | 180 | 0.0 | 0.0 | 0.00 | 0.00 | 0.00 | 70 | 1014.5 |
| 20260502063233 | 50 | 149 | 0.0 | 0.0 | 0.00 | 0.00 | 0.00 | 69 | 1014.6 |
| 20260502062730 | 50 | 167 | 2.0 | 3.0 | 0.00 | 0.00 | 0.00 | 69 | 1014.7 |
| 20260502062228 | 50 | 152 | 0.0 | 0.0 | 0.00 | 0.00 | 0.00 | 69 | 1014.5 |
| 20260502061726 | 50 | 143 | 0.0 | 1.0 | 0.00 | 0.00 | 0.00 | 70 | 1014.5 |
| 20260502061223 | 50 | 152 | 0.0 | 0.0 | 0.00 | 0.00 | 0.00 | 70 | 1014.5 |
| 20260502060718 | 49 | 162 | 0.0 | 0.0 | 0.00 | 0.00 | 0.00 | 71 | 1014.5 |
| 20260502060214 | 49 | 146 | 0.0 | 0.0 | 0.00 | 0.00 | 0.00 | 73 | 1014.7 |
| 20260502055712 | 48 | 165 | 0.0 | 0.0 | 0.00 | 0.00 | 0.00 | 73 | 1014.7 |
| 20260502055210 | 47 | 129 | 0.0 | 0.0 | 0.00 | 0.00 | 0.00 | 76 | 1014.5 |
| 20260502054709 | 47 | 122 | 0.0 | 0.0 | 0.00 | 0.00 | 0.00 | 76 | 1014.5 |
| 20260502054206 | 47 | 125 | 0.0 | 0.0 | 0.00 | 0.00 | 0.00 | 78 | 1014.7 |
| 20260502053703 | 46 | 122 | 0.0 | 0.0 | 0.00 | 0.00 | 0.00 | 78 | 1014.7 |
| 20260502053200 | 46 | 131 | 0.0 | 0.0 | 0.00 | 0.00 | 0.00 | 78 | 1014.8 |
| 20260502052659 | 46 | 131 | 0.0 | 0.0 | 0.00 | 0.00 | 0.00 | 77 | 1014.8 |
| 20260502052157 | 46 | 128 | 0.0 | 0.0 | 0.00 | 0.00 | 0.00 | 76 | 1014.9 |
| 20260502051654 | 47 | 126 | 0.0 | 0.0 | 0.00 | 0.00 | 0.00 | 77 | 1014.9 |
| 20260502051152 | 47 | 126 | 0.0 | 0.0 | 0.00 | 0.00 | 0.00 | 74 | 1014.8 |
| 20260502050648 | 47 | 132 | 0.0 | 0.0 | 0.00 | 0.00 | 0.00 | 73 | 1014.9 |
| 20260502050145 | 48 | 127 | 0.0 | 0.0 | 0.00 | 0.00 | 0.00 | 73 | 1014.8 |
| 20260502045642 | 47 | 133 | 0.0 | 0.0 | 0.00 | 0.00 | 0.00 | 73 | 1014.9 |
| 20260502045139 | 48 | 133 | 0.0 | 0.0 | 0.00 | 0.00 | 0.00 | 72 | 1014.8 |
| 20260502044635 | 48 | 135 | 0.0 | 0.0 | 0.00 | 0.00 | 0.00 | 71 | 1014.9 |
| 20260502044132 | 48 | 139 | 0.0 | 0.0 | 0.00 | 0.00 | 0.00 | 71 | 1014.8 |
| 20260502043630 | 49 | 140 | 0.0 | 0.0 | 0.00 | 0.00 | 0.00 | 70 | 1015.0 |
| 20260502043127 | 49 | 141 | 0.0 | 0.0 | 0.00 | 0.00 | 0.00 | 69 | 1014.8 |
| 20260502042620 | 49 | 145 | 0.0 | 0.0 | 0.00 | 0.00 | 0.00 | 69 | 1014.9 |
| 20260502042118 | 49 | 156 | 0.0 | 0.0 | 0.00 | 0.00 | 0.00 | 68 | 1015.0 |
| 20260502041615 | 49 | 141 | 0.0 | 0.0 | 0.00 | 0.00 | 0.00 | 66 | 1014.9 |
| 20260502041112 | 49 | 173 | 0.0 | 0.0 | 0.00 | 0.00 | 0.00 | 67 | 1014.9 |
| 20260502040609 | 49 | 149 | 0.0 | 0.0 | 0.00 | 0.00 | 0.00 | 66 | 1014.8 |
| 20260502040106 | 49 | 142 | 0.0 | 0.0 | 0.00 | 0.00 | 0.00 | 65 | 1014.9 |
| 20260502035602 | 50 | 145 | 0.0 | 0.0 | 0.00 | 0.00 | 0.00 | 63 | 1015.2 |
| 20260502035059 | 50 | 156 | 0.0 | 0.0 | 0.00 | 0.00 | 0.00 | 63 | 1015.0 |
| 20260502034557 | 50 | 141 | 0.0 | 0.0 | 0.00 | 0.00 | 0.00 | 63 | 1015.1 |
| 20260502034055 | 50 | 143 | 0.0 | 0.0 | 0.00 | 0.00 | 0.00 | 63 | 1014.9 |
| 20260502033553 | 50 | 143 | 0.0 | 0.0 | 0.00 | 0.00 | 0.00 | 63 | 1014.9 |
| 20260502033051 | 50 | 137 | 0.0 | 0.0 | 0.00 | 0.00 | 0.00 | 62 | 1014.9 |
| 20260502032546 | 50 | 159 | 0.0 | 0.0 | 0.00 | 0.00 | 0.00 | 61 | 1015.0 |
| 20260502032043 | 50 | 148 | 0.0 | 0.0 | 0.00 | 0.00 | 0.00 | 60 | 1014.9 |
| 20260502031541 | 51 | 146 | 0.0 | 0.0 | 0.00 | 0.00 | 0.00 | 59 | 1015.0 |
| 20260502031039 | 51 | 150 | 0.0 | 0.0 | 0.00 | 0.00 | 0.00 | 58 | 1015.1 |
| 20260502030537 | 51 | 148 | 0.0 | 0.0 | 0.00 | 0.00 | 0.00 | 60 | 1014.9 |
| 20260502030035 | 51 | 156 | 0.0 | 0.0 | 0.00 | 0.00 | 0.00 | 57 | 1014.9 |
| 20260502025532 | 51 | 153 | 0.0 | 0.0 | 0.00 | 0.00 | 0.00 | 57 | 1014.9 |
| 20260502025030 | 51 | 160 | 0.0 | 0.0 | 0.00 | 0.00 | 0.00 | 57 | 1014.7 |
| 20260502024527 | 51 | 154 | 0.0 | 0.0 | 0.00 | 0.00 | 0.00 | 57 | 1014.9 |
| 20260502024025 | 52 | 150 | 0.0 | 0.0 | 0.00 | 0.00 | 0.00 | 56 | 1014.9 |
| 20260502023523 | 51 | 186 | 0.0 | 0.0 | 0.00 | 0.00 | 0.00 | 56 | 1014.9 |
| 20260502023020 | 51 | 140 | 0.0 | 0.0 | 0.00 | 0.00 | 0.00 | 57 | 1014.8 |
| 20260502022516 | 50 | 144 | 0.0 | 0.0 | 0.00 | 0.00 | 0.00 | 59 | 1014.8 |
| 20260502022014 | 50 | 143 | 0.0 | 0.0 | 0.00 | 0.00 | 0.00 | 59 | 1015.0 |
| 20260502021511 | 49 | 147 | 0.0 | 0.0 | 0.00 | 0.00 | 0.00 | 59 | 1015.1 |
| 20260502021008 | 48 | 142 | 0.0 | 0.0 | 0.00 | 0.00 | 0.00 | 61 | 1015.0 |
| 20260502020506 | 48 | 134 | 0.0 | 0.0 | 0.00 | 0.00 | 0.00 | 61 | 1014.9 |
| 20260502020002 | 48 | 132 | 0.0 | 0.0 | 0.00 | 0.00 | 0.00 | 62 | 1014.7 |
| 20260502015500 | 48 | 126 | 0.0 | 0.0 | 0.00 | 0.00 | 0.00 | 63 | 1014.7 |
| 20260502014956 | 48 | 139 | 0.0 | 0.0 | 0.00 | 0.00 | 0.00 | 66 | 1014.7 |
| 20260502014453 | 47 | 172 | 2.0 | 2.0 | 0.00 | 0.00 | 0.00 | 62 | 1014.7 |
| 20260502013950 | 47 | 136 | 0.0 | 0.0 | 0.00 | 0.00 | 0.00 | 64 | 1014.4 |
| 20260502013446 | 47 | 136 | 0.0 | 0.0 | 0.00 | 0.00 | 0.00 | 62 | 1014.4 |
| 20260502012942 | 47 | 136 | 0.0 | 0.0 | 0.00 | 0.00 | 0.00 | 62 | 1014.5 |
| 20260502012440 | 47 | 137 | 0.0 | 0.0 | 0.00 | 0.00 | 0.00 | 65 | 1014.5 |
| 20260502011937 | 47 | 137 | 0.0 | 0.0 | 0.00 | 0.00 | 0.00 | 64 | 1014.4 |
| 20260502011433 | 48 | 137 | 0.0 | 0.0 | 0.00 | 0.00 | 0.00 | 63 | 1014.4 |
| 20260502010930 | 48 | 137 | 0.0 | 0.0 | 0.00 | 0.00 | 0.00 | 63 | 1014.4 |
| 20260502010427 | 48 | 140 | 0.0 | 0.0 | 0.00 | 0.00 | 0.00 | 63 | 1014.4 |
| 20260502005923 | 49 | 130 | 0.0 | 0.0 | 0.00 | 0.00 | 0.00 | 63 | 1014.3 |
| 20260502005421 | 49 | 130 | 0.0 | 0.0 | 0.00 | 0.00 | 0.00 | 64 | 1014.0 |
| 20260502004919 | 49 | 130 | 0.0 | 0.0 | 0.00 | 0.00 | 0.00 | 67 | 1013.9 |
| 20260502004415 | 49 | 130 | 0.0 | 0.0 | 0.00 | 0.00 | 0.00 | 61 | 1014.1 |
| 20260502003912 | 50 | 130 | 0.0 | 0.0 | 0.00 | 0.00 | 0.00 | 53 | 1013.9 |
| 20260502003409 | 51 | 130 | 0.0 | 0.0 | 0.00 | 0.00 | 0.00 | 52 | 1013.8 |
| 20260502002905 | 51 | 130 | 0.0 | 0.0 | 0.00 | 0.00 | 0.00 | 49 | 1014.0 |
| 20260502002403 | 52 | 130 | 0.0 | 0.0 | 0.00 | 0.00 | 0.00 | 50 | 1013.7 |
| 20260502001900 | 52 | 130 | 0.0 | 0.0 | 0.00 | 0.00 | 0.00 | 50 | 1013.8 |
| 20260502001358 | 53 | 130 | 0.0 | 0.0 | 0.00 | 0.00 | 0.00 | 47 | 1013.6 |
| 20260502000855 | 53 | 130 | 0.0 | 0.0 | 0.00 | 0.00 | 0.00 | 47 | 1013.6 |
| 20260502000354 | 54 | 130 | 0.0 | 0.0 | 0.00 | 0.00 | 0.00 | 46 | 1013.5 |
| 20260501235849 | 54 | 130 | 0.0 | 0.0 | 0.00 | 0.00 | 0.00 | 44 | 1013.3 |
| 20260501235345 | 55 | 132 | 0.0 | 0.0 | 0.00 | 0.00 | 0.00 | 43 | 1013.4 |
| 20260501234840 | 56 | 132 | 0.0 | 0.0 | 0.00 | 0.00 | 0.00 | 41 | 1013.1 |
| 20260501234337 | 57 | 137 | 0.0 | 0.0 | 0.00 | 0.00 | 0.00 | 40 | 1013.0 |
| 20260501233836 | 58 | 138 | 0.0 | 0.0 | 0.00 | 0.00 | 0.00 | 39 | 1013.1 |
| 20260501233333 | 59 | 149 | 0.0 | 0.0 | 0.00 | 0.00 | 0.00 | 37 | 1013.0 |
| 20260501232829 | 59 | 154 | 0.0 | 1.0 | 0.00 | 0.00 | 0.00 | 35 | 1013.0 |
| 20260501232326 | 59 | 203 | 1.0 | 1.0 | 0.00 | 0.00 | 0.00 | 35 | 1012.8 |
| 20260501231824 | 60 | 188 | 2.0 | 2.0 | 0.00 | 0.00 | 0.00 | 34 | 1012.7 |
| 20260501231321 | 60 | 179 | 1.0 | 1.0 | 0.00 | 0.00 | 0.00 | 35 | 1012.7 |
| 20260501230819 | 60 | 150 | 1.0 | 1.0 | 0.00 | 0.00 | 0.00 | 34 | 1012.6 |
| 20260501230318 | 61 | 180 | 3.0 | 4.0 | 0.00 | 0.00 | 0.00 | 33 | 1012.4 |
| 20260501225815 | 61 | 185 | 2.0 | 3.0 | 0.00 | 0.00 | 0.00 | 33 | 1012.5 |
| 20260501225313 | 61 | 319 | 4.0 | 4.0 | 0.00 | 0.00 | 0.00 | 34 | 1012.5 |